Hourly Data Report for September 07, 2017

All times are specified in Local Standard Time (LST). Add 1 hour to adjust for Daylight Saving Time where and when it is observed.

SUSSEX FOUR CORNERS
NEW BRUNSWICK

45°44'30.048" N
65°31'44.039" W
47.00 m
8105210
71656
ASF

Download Data

Hourly Data (September 2017)
Hourly Data Report for September 7, 2017
Temp Definition
°C
Dew Point Temp Definition
°C
Rel Hum Definition
%
Wind Dir Definition
10's deg

Wind Spd Definition
km/h
Visibility Definition
km
Stn Press Definition
kPa
Hmdx Definition


Wind Chill Definition


Weather Definition


TIME
00:00 19.8 19.1 96 18 17   100.85     LegendNANA
01:00 19.4 18.8 96 19 13   100.79     LegendNANA
02:00 19.6 18.9 96 24 7   100.76     LegendNANA
03:00 19.5 19.0 97 26 3   100.68     LegendNANA
04:00 21.0 20.2 95 18 14   100.60 29   LegendNANA
05:00 20.8 20.2 96 16 11   100.49 29   LegendNANA
06:00 20.7 20.2 97 16 6   100.40 28   LegendNANA
07:00 21.3 20.7 96 15 18   100.30 29   LegendNANA
08:00 21.0 20.6 97 17 11   100.25 29   LegendNANA
09:00 21.5 20.9 97 19 18   100.21 30   LegendNANA
10:00 20.9 19.8 94 20 24   100.15 28   LegendNANA
11:00 20.8 19.8 94 18 20   100.12 28   LegendNANA
12:00 22.5 20.5 89 18 35   100.00 30   LegendNANA
13:00 21.5 21.1 97 19 30   99.97 30   LegendNANA
14:00 20.5 19.5 94 20 35   99.97 28   LegendNANA
15:00 19.6 17.9 90 19 30   100.00     LegendNANA
16:00 19.2 17.2 88 18 26   99.99     LegendNANA
17:00 18.3 16.2 87 19 25   100.07     LegendNANA
18:00 17.3 15.7 91 19 17   100.11     LegendNANA
19:00 16.1 14.8 92 19 19   100.15     LegendNANA
20:00 15.0 13.9 93 20 11   100.26     LegendNANA
21:00 14.9 13.8 93 19 17   100.29     LegendNANA
22:00 15.3 14.2 93 19 17   100.28     LegendNANA
23:00 15.2 14.2 94 21 12   100.30     LegendNANA

Notes on Data Quality.

Legend

  • E = Estimated
  • M = Missing
  • NA = Not Available
  • ‡ = Partner data that is not subject to review by the National Climate Archives
Date modified: